アトラス彗星

C/2018 L2 ( ATLAS )

English version
Home page
Updated on May 17, 2020

---------------------------------------------------------------------

・ プロフィール

発見日 2018年6月6日
発見光度 15.6等
発見者 Asteroid Terrestrial-impact Last Alert System (ATLAS) search program

・ 写真集

・ 軌道要素

Epoch 2018 Nov. 18.0 TT = JDT 2458440.5
T 2018 Dec. 2.57874 TT                                  Rudenko
q   1.7116813            (2000.0)            P               Q
z  +0.0041113      Peri.   56.22970     +0.03220270     +0.56732590
 +/-0.0000007      Node   243.01854     -0.89265210     +0.38666411
e   0.9929628      Incl.   67.42370     +0.44959450     +0.72707096
From 699 observations 2017 Apr. 29-2020 Jan. 20, mean residual 0".7.

・ 星図

・ 光度変化

        m1 = 3.0 + 5 logΔ + 25.0 log r  [ ,0]  (              〜2018年12月 2日)
        m1 = 5.1 + 5 logΔ + 16.0 log r  [0, ]  (2018年12月 2日〜              )

---------------------------------------------------------------------

軌道要素はM.P.E.C. 2020-G65に掲載されたものです。
星図はステラナビゲータ Ver.10 (アストロアーツ) で作成したものです。
光度グラフはComet for Windowsで作成したものです。

---------------------------------------------------------------------

Copyright(C) Seiichi Yoshida (comet@aerith.net). All rights reserved.